Regional Weather Roundup
Issued by NWS

Home | Current Version | Previous Version | Text Only | Print | Product List | Glossary Off
Versions: 1 2 3 4 5 6 7 8 9 10 11 12 13 14 15 16 17 18 19 20 21 22 23 24 25 26 27 28 29 30 31 32 33 34 35 36 37 38 39 40 41 42 43 44 45 46 47 48 49 50

000
ASUS43 KBIS 021910
RWRND

NORTH DAKOTA REGIONAL WEATHER ROUNDUP
NATIONAL WEATHER SERVICE BISMARCK ND
200 PM CDT TUE SEP 02 2014

NOTE: "FAIR" INDICATES FEW OR NO CLOUDS BELOW 12,000 FEET WITH NO
SIGNIFICANT WEATHER AND/OR OBSTRUCTIONS TO VISIBILITY.


NDZ001>003-009>011-017-022000-
NORTHWEST NORTH DAKOTA

CITY           SKY/WX    TMP DP  RH WIND       PRES   REMARKS
WILLISTON      SUNNY     74  46  36 W15       29.77F
MINOT          SUNNY     75  47  36 W21       29.72R
MINOT AFB      SUNNY     74  52  45 W20G28    29.71R
$$

NDZ018>021-031>035-040>046-022000-
SOUTHWEST NORTH DAKOTA

CITY           SKY/WX    TMP DP  RH WIND       PRES   REMARKS
BISMARCK       SUNNY     79  51  37 W9        29.79F
DICKINSON      PTSUNNY   73  46  38 W13G21    29.82S
GARRISON         N/A     76  46  34 W21G26    29.76S
HETTINGER ARPT SUNNY     74  49  41 W12       29.86S
$$

NDZ004>008-012>016-024-026-027-054-022000-
NORTHEAST NORTH DAKOTA

CITY           SKY/WX    TMP DP  RH WIND       PRES   REMARKS
GRAND FORKS    MOSUNNY   74  56  53 S16G22    29.73F
GRND FRKS AFB  MOSUNNY   73  57  57 S13       29.74F
DEVILS LAKE    SUNNY     72  54  53 SW16      29.71F
$$

NDZ022-023-025-028>030-036>039-047>053-022000-
SOUTHEAST NORTH DAKOTA

CITY           SKY/WX    TMP DP  RH WIND       PRES   REMARKS
FARGO          MOSUNNY   77  52  41 SW10G20   29.79F
JAMESTOWN      SUNNY     76  52  43 S12       29.77F
$$



USA.gov is the U.S. government's official web portal to all federal, state and local government web resources and services.